Location: Napier
(39.4830°S, 176.9170°E)
Time: 00:03:21
(UTC+13:00)

Meteor 1-11 Rocket - Pass Details

Date: 24 January 2019
Orbit: 831 x 916 km, 81.2° (Epoch: 17 February)

Event Time Altitude Azimuth Distance (km) Brightness Sun altitude
Rises 23:35:34 0° 183° (S) 3,590 8.0 -26.0°
Reaches altitude 10° 23:38:14 10° 175° (S) 2,642 7.0 -26.3°
Maximum altitude 23:43:56 42° 105° (ESE) 1,295 4.5 -26.8°
Enters shadow 23:44:12 42° 98° (E) 1,298 4.4 -26.8°
